SCP
0 0 0 0 0 0 0 0 0 0 0 0 0 0 0 0 0 0 0 0 0 0 0 0 0 0 0 0 0 0 0 0 0 0 0 0 0 0 0 0 0 0 0
0 0 0 0 0 0 0 0 0 0 0 0 0 0 0 0 0 0 0 0 0 0 0 0 0 0 0 0 0 0 0 0 0 0 0 0 0 0 0 0 0 0 0
0 0 0 0 0 0 0 0 0 0 0 0 0 0 0 0 0 0 0 0 0 0 0 0 0 0 0 0 0 0 0 0 0 0 0 0 0 0 0 0 0 0 0
0 0 0 0 0 0 0 0 0 0 0 0 0 0 0 0 0 0 0 0 0 0 0 0 0 0 0 0 0 0 0 0 0 0 0 0 0 0 0 0 0 0 0
0 0 0 0 0 0 0 0 0 0 0 0 0 0 0 0 0 0 0 0 0 0 0 0 0 0 0 0 0 0 0 0 0 0 0 0 0 0 0 0 0 0 0
0 0 0 0 0 0 0 0 0 0 0 0 0 0 0 0 0 0 0 0 0 0 0 0 0 0 0 0 0 0 0 0 0 0 0 0 0 0 0 0 0 0 0
0 0 0 0 0 0 0 0 0 0 0 0 0 0 0 0 0 0 0 0 0 0 0 0 0 0 0 0 0 0 0 0 0 0 0 0 0 0 0 0 0 0 0
0 0 0 0 0 0 0 0 0 0 0 0 0 0 0 0 0 0 0 0 0 0 0 0 0 0 0 0 0 0 0 0 0 0 0 0 0 0 0 0 0 0 0
0 0 0 0 0 0 0 0 0 0 0 0 0 0 0 0 0 0 0 0 0 0 0 0 0 0 0 0 0 0 0 0 0 0 0 0 0 0 0 0 0 0 0
0 0 0 0 0 0 0 0 0 0 0 0 0 0 0 0 0 0 0 0 0 0 0 0 0 0 0 0 0 0 0 0 0 0 0 0 0 0 0 0 0 0 0
0 0 0 0 0 0 0 0 0 0 0 0 0 0 0 0 0 0 0 0 0 0 0 0 0 0 0 0 0 0 0 0 0 0 0 0 0 0 0 0 0 0 0
0 0 0 0 0 0 0 0 0 0 0 0 0 0 0 0 0 0 0 0 0 0 0 0 0 0 0 0 0 0 0 0 0 0 0 0 0 0 0 0 0 0 0
0 0 0 0 0 0 0 0 0 0 0 0 0 0 0 0 0 0 0 0 0 0 0 0 0 0 0 0 0 0 0 0 0 0 0 0 0 0 0 0 0 0 0
0 0 0 0 0 0 0 0 0 0 0 0 0 0 0 0 0 0 0 0 0 0 0 0 0 0 0 0 0 0 0 0 0 0 0 0 0 0 0 0 0 0 0
0 0 0 0 0 0 0 0 0 0 0 0 0 0 0 0 0 0 0 0 0 0 0 0 0 0 0 0 0 0 0 0 0 0 0 0 0 0 0 0 0 0 0
0 0 0 0 0 0 0 0 0 0 0 0 0 0 0 0 0 0 0 0 0 0 0 0 0 0 0 0 0 0 0 0 0 0 0 0 0 0 0 0 0 0 0
0 0 0 0 0 0 0 0 0 0 0 0 0 0 0 0 0 0 0 0 0 0 0 0 0 0 0 0 0 0 0 0 0 0 0 0 0 0 0 0 0 0 0
0 0 0 0 0 0 0 0 0 0 0 0 0 0 0 0 0 0 0 0 0 0 0 0 0 0 0 0 0 0 0 0 0 0 0 0 0 0 0 0 0 0 0
0 0 0 0 0 0 0 0 0 0 0 0 0 0 0 0 0 0 0 0 0 0 0 0 0 0 0 0 0 0 0 0 0 0 0 0 0 0 0 0 0 0 0
0 0 0 0 0 0 0 0 0 0 0 0 0 0 0 0 0 0 0 0 0 0 0 0 0 0 0 0 0 0 0 0 0 0 0 0 0 0 0 0 0 0 0
0 0 0 0 0 0 0 0 0 0 0 0 0 0 0 0 0 0 0 0 0 0 0 0 0 0 0 0 0 0 0 0 0 0 0 0 0 0 0 0 0 0 0
0 0 0 0 0 0 0 0 0 0 0 0 0 0 0 0 0 0 0 0 0 0 0 0 0 0 0 0 0 0 0 0 0 0 0 0 0 0 0 0 0 0 0
0 0 0 0 0 0 0 0 0 0 0 0 0 0 0 0 0 0 0 0 0 0 0 0 0 0 0 0 0 0 0 0 0 0 0 0 0 0 0 0 0 0 0
0 0 0 0 0 0 0 0 0 0 0 0 0 0 0 0 0 0 0 0 0 0 0 0 0 0 0 0 0 0 0 0 0 0 0 0 0 0 0 0 0 0 0
0 0 0 0 0 0 0 0 0 0 0 0 0 0 0 0 0 0 0 0 0 0 0 0 0 0 0 0 0 0 0 0 0 0 0 0 0 0 0 0 0 0 0
0 0 0 0 0 0 0 0 0 0 0 0 0 0 0 0 0 0 0 0 0 0 0 0 0 0 0 0 0 0 0 0 0 0 0 0 0 0 0 0 0 0 0
Wind_Speed
4 4 10 11 12 11 11 11 12 13 13 13 13 12 13 13 13 12 12 12 11 11 10 10 9 9 9 9 10 9 9 10 9 9 9 9 10 10 10 10 10 7 11
7 7 11 11 12 12 11 11 12 12 12 12 12 12 12 12 12 11 11 11 10 10 9 9 8 8 8 8 8 8 8 8 8 9 8 8 8 8 9 9 10 6 10
9 7 10 12 12 12 12 11 12 12 12 12 11 11 11 11 11 10 10 10 9 9 9 8 8 7 7 6 6 6 6 7 7 7 6 3 5 7 8 9 10 10 10
10 7 9 13 12 12 12 11 11 11 11 11 10 10 10 10 10 10 9 9 8 8 8 7 7 6 6 5 5 5 5 5 6 6 3 3 3 7 8 9 9 10 10
8 7 9 14 13 12 12 11 11 11 10 10 10 9 9 9 9 9 8 8 7 7 7 6 6 6 5 5 4 4 4 4 4 3 2 2 2 6 8 10 10 10 10
8 6 9 14 12 12 11 11 10 10 9 9 9 8 8 8 8 8 8 7 7 6 6 6 6 5 5 5 4 4 3 3 2 1 2 3 3 6 8 10 10 10 10
8 6 7 13 12 12 11 10 10 9 9 8 8 8 7 7 7 7 7 7 7 6 6 6 6 6 5 5 5 4 4 3 2 2 2 3 4 7 9 9 9 10 10
10 7 7 11 12 11 10 10 10 9 8 8 7 7 7 7 7 6 6 7 7 6 6 6 6 6 6 6 5 5 4 3 2 3 2 3 6 9 9 10 10 10 10
8 7 5 5 7 9 10 9 9 8 8 7 7 7 7 6 6 6 6 7 7 6 6 6 6 6 7 7 6 6 5 5 2 2 3 3 7 9 10 10 10 10 10
6 6 5 4 3 3 4 7 8 7 7 6 6 6 6 6 5 6 6 6 7 7 6 6 6 7 8 8 7 7 6 4 2 3 2 4 8 10 10 10 10 10 11
6 4 4 4 3 3 3 5 5 6 5 4 4 5 4 2 2 3 5 6 7 6 6 5 5 6 7 7 8 7 5 2 2 2 3 6 9 11 11 10 11 11 11
6 5 4 4 3 3 3 2 1 2 2 1 1 2 1 1 2 3 5 6 6 6 6 6 6 5 4 2 4 5 2 3 3 3 3 8 9 11 11 10 11 12 12
7 6 4 4 3 3 2 2 1 1 1 1 1 1 1 1 1 1 1 2 3 4 2 3 3 2 2 2 2 2 3 2 2 3 4 8 9 10 11 10 11 12 12
6 5 5 4 3 3 2 2 2 1 1 1 1 2 2 1 1 1 1 1 1 1 2 2 1 2 2 3 3 3 3 2 2 2 3 8 9 10 11 11 11 11 12
5 5 5 4 3 3 2 2 2 2 2 1 1 1 2 1 1 1 1 1 1 1 1 2 2 2 2 2 3 3 3 3 3 3 3 9 10 9 10 11 12 11 11
6 5 4 5 4 4 2 2 2 2 2 1 1 1 2 2 1 1 1 1 1 1 1 2 2 2 1 1 2 3 3 3 4 4 3 6 10 10 10 12 12 12 11
6 5 5 5 4 4 3 2 2 2 2 1 1 1 2 2 2 1 1 1 1 1 1 1 1 1 1 1 2 2 3 3 4 4 4 3 4 9 10 11 11 11 11
6 5 5 5 4 3 3 3 2 2 2 1 1 1 1 2 2 2 1 1 1 0 0 1 1 1 1 1 1 2 2 2 3 4 3 4 3 3 7 11 11 10 10
7 6 5 4 4 3 3 2 2 2 2 1 1 1 1 2 2 2 1 1 0 0 0 0 1 1 1 1 1 1 1 2 2 3 4 4 4 3 3 6 10 10 10
6 6 5 4 4 3 3 2 2 2 1 1 1 1 1 1 2 2 1 0 0 1 0 0 0 0 0 1 1 1 1 1 1 2 3 3 3 4 3 3 4 6 10
6 5 5 5 4 3 2 2 1 1 0 1 0 1 1 1 2 2 1 0 1 1 1 1 1 1 1 0 1 2 2 1 0 1 1 2 3 3 3 3 2 3 4
7 6 5 5 5 4 3 2 2 2 1 1 0 1 1 1 1 1 1 1 1 1 1 1 1 1 1 0 1 1 2 3 2 1 0 1 2 1 2 3 3 4 3
6 6 6 4 4 3 3 2 2 2 2 1 1 1 1 1 1 1 1 1 1 1 1 1 1 1 1 1 1 2 2 2 2 2 1 1 1 1 2 2 3 3 4
6 5 4 4 4 3 3 3 4 3 2 1 1 1 1 0 1 1 1 1 1 1 1 1 1 1 1 1 1 0 2 3 2 1 2 1 0 1 2 2 2 2 3
7 5 4 4 3 3 3 4 3 2 1 1 0 0 1 1 0 0 0 1 0 0 0 0 1 1 1 1 0 1 0 0 1 2 1 2 1 1 1 1 1 2 2
5 5 4 4 3 3 3 3 3 3 2 2 1 0 0 1 1 1 0 0 0 0 0 1 1 1 1 1 0 0 0 0 1 2 2 1 1 2 1 0 0 1 1
Wind_Direction
157 161 138 130 126 121 118 118 118 119 120 120 120 119 119 119 120 121 123 123 125 127 127 127 127 123 121 122 125 129 131 130 130 131 132 134 137 136 132 132 130 129 131
155 158 139 133 128 123 122 123 123 124 124 124 124 123 123 124 124 125 125 126 128 129 130 131 129 126 125 126 127 130 134 135 135 135 135 138 143 146 141 139 138 140 139
145 149 142 135 129 125 125 126 126 127 127 127 126 126 126 127 129 131 131 133 133 133 133 134 133 132 134 134 133 133 135 143 144 142 138 138 150 156 153 149 146 143 144
142 142 139 134 130 128 127 127 126 127 127 128 130 132 132 133 134 135 137 139 141 140 140 140 143 144 142 142 142 142 144 152 157 158 149 151 159 161 159 156 152 150 149
136 138 143 136 133 130 128 128 129 128 129 130 132 135 139 141 142 141 142 143 145 147 150 152 154 155 155 153 152 153 156 163 171 172 152 158 161 166 165 161 158 156 155
135 140 146 138 136 133 133 133 133 133 133 135 138 139 142 145 147 149 150 151 154 157 162 165 171 177 178 176 177 179 185 185 178 170 164 164 164 176 171 168 166 163 162
137 142 146 142 142 140 138 138 139 139 140 141 143 145 148 150 151 154 156 159 161 164 172 178 186 191 198 201 204 206 212 224 181 165 176 173 179 180 178 175 172 170 169
139 144 146 148 148 147 145 143 142 143 146 148 151 155 157 159 161 162 165 168 169 172 176 183 194 202 208 212 217 223 223 225 187 169 191 186 185 183 181 180 178 176 175
133 138 139 146 149 153 152 148 148 149 150 154 162 167 169 171 172 177 183 182 181 183 184 193 202 209 213 217 223 225 222 217 194 175 199 194 191 190 185 184 183 181 179
134 136 138 141 147 158 161 157 157 158 160 163 170 172 174 181 185 192 195 194 193 196 201 208 215 219 220 222 225 228 227 218 194 190 201 202 195 191 187 187 188 186 184
140 148 149 146 150 160 169 174 169 165 166 170 170 173 179 192 203 209 213 208 204 205 210 217 222 223 226 228 228 230 231 196 181 202 203 206 201 198 195 192 192 190 190
155 162 157 162 166 166 172 162 168 167 167 159 144 163 158 179 203 202 217 220 215 214 218 223 229 229 229 234 239 238 216 201 195 207 213 210 206 202 200 198 195 195 195
160 160 161 169 170 171 173 150 156 150 152 165 154 165 162 174 203 226 228 232 230 227 225 237 235 225 214 212 215 212 213 206 198 212 219 212 206 203 203 202 200 199 199
149 159 163 166 167 178 164 157 153 148 160 165 175 169 152 157 208 212 209 221 214 219 214 228 223 219 220 217 209 207 209 198 194 201 206 205 206 204 204 204 205 203 203
146 160 163 158 155 158 149 156 142 158 161 168 162 157 155 160 181 184 180 192 195 195 198 206 219 216 215 217 214 202 195 198 194 197 199 204 207 207 205 203 205 204 203
145 153 154 150 150 141 139 142 146 152 153 146 161 172 155 154 153 152 177 187 197 197 203 199 208 208 211 208 212 207 201 199 197 199 203 209 209 206 208 208 205 204 204
148 150 152 144 138 139 134 132 128 143 142 146 151 156 149 150 151 146 163 184 231 225 208 199 218 200 213 203 217 224 217 202 199 202 202 204 207 209 208 207 204 204 207
145 149 155 141 134 135 130 124 123 129 137 148 144 160 146 149 143 131 131 204 242 196 158 179 182 170 231 217 232 249 231 209 208 208 203 205 205 209 213 211 208 207 208
152 151 150 140 141 142 131 121 111 116 123 132 121 126 145 147 133 127 141 212 224 106 95 193 96 156 188 243 259 252 235 224 223 215 203 206 201 202 207 215 211 207 209
150 146 147 143 145 139 123 98 81 79 82 81 94 85 110 131 130 128 136 206 143 99 52 59 77 63 159 239 280 300 277 239 222 214 209 201 194 197 197 205 209 209 206
149 147 150 147 154 143 135 130 118 113 87 57 67 48 87 122 126 127 127 145 136 139 167 122 92 61 342 34 52 349 330 311 238 224 199 180 194 196 190 198 199 199 206
163 164 159 162 168 162 163 160 149 140 145 134 20 35 69 106 132 147 142 161 149 130 98 74 78 86 321 81 127 94 357 349 347 347 195 183 186 172 191 204 202 198 193
167 170 169 171 168 164 150 124 99 72 46 31 10 355 348 98 120 115 126 133 140 151 171 173 130 141 203 307 144 146 154 227 296 325 298 200 179 181 201 201 200 196 189
171 165 161 158 160 161 150 138 144 143 163 208 212 251 306 23 92 125 105 99 113 148 167 212 139 144 154 248 318 243 182 170 164 298 323 323 262 191 212 212 194 179 181
167 159 151 146 152 154 154 155 151 155 185 198 160 85 0 342 358 130 115 75 80 125 131 121 116 118 143 166 239 284 289 82 145 160 258 310 332 285 236 215 182 182 180
158 154 149 142 151 160 156 156 158 166 170 165 168 141 311 300 316 335 21 88 139 147 153 171 149 127 128 141 181 122 153 179 215 173 195 230 262 289 313 31 145 183 194